User: anonymous   Login
Location: Unspecified
(0.0000°N, 0.0000°E)
Time: 22:27:53
(UTC+00:00)
Language:

Kosmos-2218 - Orbit

View from above orbital plane
View from above orbital plane
View from above satellite
View from above satellite

Ground track
Ground track

The orbit data is extracted from the following two-line orbital elements,

1 22207U 92073A   23083.09686338  .00000086  00000-0  76396-4 0  9992
2 22207  82.9176 290.1587 0033512  44.7648  67.7707 13.72929243523137
Epoch (UTC): 24 March 2023 02:19:28
Eccentricity: 0.0033512
inclination: 82.9176°
perigee height: 964 km
apogee height: 1014 km
right ascension of ascending node: 290.1587°
argument of perigee: 44.7648°
revolutions per day: 13.72929243
mean anomaly at epoch: 67.7707°
orbit number at epoch: 52313

The dashed part of the orbit path shows where the satellite is in the earth's shadow,  

DLR